Weather History for Nogales, AZ

Change the Weather History Date:

Monday, March 18, 2013

  Actual Average (KTUS) Record (KTUS)
Temperature  
Mean Temperature 60 °F 60 °F  
Max Temperature 77 °F 75 °F 95 °F (1907)
Min Temperature 44 °F 46 °F 24 °F (1903)
Degree Days  
Heating Degree Days 4 5  
Month to date heating degree days 120  
Since 1 July heating degree days 1387  
Cooling Degree Days 0 1  
Month to date cooling degree days 10  
Year to date cooling degree days 14  
Growing Degree Days 10 (Base 50)    
Moisture  
Dew Point 23 °F    
Average Humidity 27    
Maximum Humidity 60    
Minimum Humidity 10    
Precipitation  
Precipitation 0.00 in 0.03 in 0.58 in (1944)
Month to date precipitation 0.46  
Year to date precipitation 2.26  
Sea Level Pressure  
Sea Level Pressure 29.91 in    
Wind  
Wind Speed 5 mph (SSE)    
Max Wind Speed 12 mph    
Max Gust Speed 22 mph    
Visibility 10 miles    
Events      
T = Trace of Precipitation, MM = Missing Value Source: NWS Daily Summary

Daily Weather History Graph

Daily Weather History Graph

Search for Another Location

Airport:

Trip Planner

Search our weather history database for the weather conditions in past years. The results will help you decide how hot, cold, wet, or windy it might be!

Date:

Astronomy

Mar. 18, 2013 Rise Set
Actual Time 6:29 AM MST 6:33 PM MST
Civil Twilight 6:05 AM MST 6:58 PM MST
Nautical Twilight 5:36 AM MST 7:26 PM MST
Astronomical Twilight 5:08 AM MST 7:54 PM MST
Moon 10:52 AM MST (3/18) 12:15 AM MST (3/18)
Length of Visible Light 12h 52m
Length of Day
12h 04m
Waxing Crescent, 41% of the Moon is Illuminated
Mar 18
Waxing Crescent
Mar 19
First Quarter
Mar 27
Full
Apr 2
Last Quarter
Apr 10
New

Hourly Weather History & Observations

Time (MST) Temp. Windchill Dew Point Humidity Pressure Visibility Wind Dir Wind Speed Gust Speed Precip Events Conditions
12:54 AM 55.0 °F - 24.1 °F 30% 29.87 in 10.0 mi ESE 3.5 mph - N/A   Clear
1:54 AM 52.0 °F - 26.1 °F 37% 29.88 in 10.0 mi East 3.5 mph - N/A   Clear
2:54 AM 48.0 °F - 28.0 °F 46% 29.88 in 10.0 mi East 5.8 mph - N/A   Clear
3:54 AM 48.0 °F - 28.9 °F 48% 29.87 in 10.0 mi NE 3.5 mph - N/A   Clear
4:54 AM 45.0 °F 42.6 °F 28.9 °F 53% 29.89 in 10.0 mi NE 4.6 mph - N/A   Clear
5:54 AM 46.9 °F - 30.0 °F 52% 29.91 in 10.0 mi NE 3.5 mph - N/A   Clear
6:54 AM 44.1 °F 42.5 °F 30.9 °F 60% 29.95 in 10.0 mi East 3.5 mph - N/A   Clear
7:54 AM 52.0 °F - 32.0 °F 47% 29.95 in 10.0 mi Calm Calm - N/A   Clear
8:54 AM 60.1 °F - 32.0 °F 35% 29.96 in 10.0 mi Calm Calm - N/A   Clear
9:54 AM 68.0 °F - 30.9 °F 25% 29.94 in 10.0 mi South 9.2 mph - N/A   Clear
10:54 AM 72.0 °F - 24.1 °F 17% 29.93 in 10.0 mi South 9.2 mph - N/A   Clear
11:54 AM 73.0 °F - 19.0 °F 13% 29.92 in 10.0 mi Variable 4.6 mph - N/A   Clear
12:54 PM 75.9 °F - 17.1 °F 11% 29.89 in 10.0 mi WNW 10.4 mph 17.3 mph N/A   Clear
1:54 PM 77.0 °F - 16.0 °F 10% 29.87 in 10.0 mi WSW 11.5 mph 21.9 mph N/A   Clear
2:54 PM 75.9 °F - 14.0 °F 10% 29.87 in 10.0 mi North - - N/A   Clear
3:54 PM 75.9 °F - 16.0 °F 10% 29.86 in 10.0 mi SW 6.9 mph 17.3 mph N/A   Clear
4:54 PM 75.9 °F - 17.1 °F 11% 29.87 in 10.0 mi SW 9.2 mph - N/A   Clear
5:54 PM 73.0 °F - 16.0 °F 11% 29.89 in 10.0 mi West 9.2 mph - N/A   Clear
6:54 PM 69.1 °F - 17.1 °F 14% 29.91 in 10.0 mi SW 4.6 mph - N/A   Clear
7:54 PM 64.0 °F - 19.0 °F 18% 29.92 in 10.0 mi SSE 4.6 mph - N/A   Clear
8:54 PM 57.0 °F - 21.9 °F 26% 29.93 in 10.0 mi East 3.5 mph - N/A   Clear
9:54 PM 57.0 °F - 21.0 °F 25% 29.93 in 10.0 mi Calm Calm - N/A   Clear
10:54 PM 60.1 °F - 19.9 °F 21% 29.92 in 10.0 mi Calm Calm - N/A   Clear
11:54 PM 57.9 °F - 23.0 °F 26% 29.91 in 10.0 mi Calm Calm - N/A   Clear